User: anonymous   Login
Location: Unspecified
(0.0000°N, 0.0000°E)
Time: 08:18:30
(UTC+01:00)
Language:

NOAA 12 - Orbit

View from above orbital plane
View from above orbital plane
View from above satellite
View from above satellite

Ground track
Ground track

The orbit data is extracted from the following two-line orbital elements,

1 21263U 91032A   14326.48225630  .00000082  00000-0  52817-4 0  5112
2 21263 098.6502 351.3944 0014721 134.6563 328.4766 14.25703599223118
Epoch (UTC): 22 November 2014 11:34:26
Eccentricity: 0.0014721
inclination: 98.6502°
perigee height: 795 km
apogee height: 817 km
right ascension of ascending node: 351.3944°
argument of perigee: 134.6563°
revolutions per day: 14.25703599
mean anomaly at epoch: 328.4766°
orbit number at epoch: 22311

The dashed part of the orbit path shows where the satellite is in the earth's shadow,  

DLR